Location: Corcelles
(46.1547°N, 4.7234°E)
Time: 04:44:43
(UTC+00:00)

Cosmos 1850 Rocket - Pass Details

Date: 14 July 2020
Orbit: 754 x 785 km, 74.0° (Epoch: 06 August)

Event Time Altitude Azimuth Distance (km) Brightness Sun altitude
Exits shadow 02:46:39 12° 198° (SSW) 2,206 5.8 -11.0°
Maximum altitude 02:51:38 87° 112° (ESE) 793 4.1 -10.4°
Drops below altitude 10° 02:57:00 10° 22° (NNE) 2,351 7.8 -9.8°
Sets 02:59:24 0° 23° (NNE) 3,281 8.7 -9.5°
